Location: Alafon
(8.4500°N, 4.2333°E)
Time: 03:14:43
(UTC+00:00)

Vanguard 2 - Pass Details

Date: 04 August 2021
Orbit: 552 x 2937 km, 32.9° (Epoch: 21 September)

Event Time Altitude Azimuth Distance (km) Brightness Sun altitude
Rises 07:21:00 0° 331° (NNW) 3,269 10.6 24.3°
Reaches altitude 10° 07:24:11 10° 354° (N) 2,637 10.5 25.1°
Maximum altitude 07:28:07 16° 32° (NNE) 2,583 11.1 26.0°
Drops below altitude 10° 07:33:12 10° 68° (ENE) 3,576 12.7 27.2°
Sets 07:38:41 0° 86° (E) 5,119 12.9 28.5°
